| time (UTC) | temp F | wind direction | speed MPH | gust MPH | rain 1hr in | rain 24hr in | rain mn in | humidity % | barometer mb |
| 20260505153057 | 36 | 300 | 0.0 | 2.0 | 0.05 | 0.13 | 0.10 | 92 | 1015.0 |
| 20260505152601 | 36 | 0 | 0.0 | 1.0 | 0.06 | 0.13 | 0.10 | 92 | 1014.9 |
| 20260505152057 | 36 | 0 | 0.0 | 0.0 | 0.06 | 0.13 | 0.10 | 92 | 1014.7 |
| 20260505151557 | 36 | 0 | 0.0 | 0.0 | 0.06 | 0.12 | 0.09 | 92 | 1014.8 |
| 20260505151057 | 36 | 0 | 0.0 | 0.0 | 0.05 | 0.11 | 0.08 | 92 | 1014.7 |
| 20260505150557 | 35 | 0 | 0.0 | 0.0 | 0.05 | 0.11 | 0.08 | 92 | 1014.5 |
| 20260505140557 | 36 | 0 | 0.0 | 0.0 | 0.02 | 0.06 | 0.03 | 90 | 1014.2 |
| 20260505140123 | 36 | 0 | 0.0 | 0.0 | 0.01 | 0.05 | 0.02 | 90 | 1014.0 |
| 20260505130103 | 36 | 82 | 1.0 | 1.0 | 0.00 | 0.04 | 0.01 | 91 | 1013.3 |
| 20260505124602 | 36 | 157 | 0.0 | 1.0 | 0.00 | 0.04 | 0.01 | 92 | 1013.3 |
| 20260505124100 | 36 | 173 | 0.0 | 1.0 | 0.00 | 0.04 | 0.01 | 92 | 1013.3 |
| 20260505123557 | 36 | 0 | 0.0 | 0.0 | 0.00 | 0.04 | 0.01 | 92 | 1013.3 |
| 20260505123101 | 36 | 0 | 0.0 | 0.0 | 0.00 | 0.04 | 0.01 | 92 | 1013.2 |
| 20260505122557 | 36 | 0 | 0.0 | 0.0 | 0.00 | 0.04 | 0.01 | 92 | 1013.2 |
| 20260505122057 | 36 | 0 | 0.0 | 0.0 | 0.00 | 0.04 | 0.01 | 92 | 1013.3 |
| 20260505121601 | 36 | 0 | 0.0 | 1.0 | 0.00 | 0.04 | 0.01 | 92 | 1013.4 |
| 20260505121057 | 36 | 260 | 0.0 | 1.0 | 0.00 | 0.04 | 0.01 | 93 | 1013.4 |
| 20260505120557 | 36 | 0 | 0.0 | 1.0 | 0.00 | 0.04 | 0.01 | 93 | 1013.2 |
| 20260505120112 | 36 | 0 | 0.0 | 1.0 | 0.00 | 0.04 | 0.01 | 92 | 1013.5 |
| 20260505115556 | 36 | 0 | 0.0 | 1.0 | 0.00 | 0.04 | 0.01 | 92 | 1013.5 |
| 20260505115057 | 36 | 0 | 0.0 | 0.0 | 0.00 | 0.04 | 0.01 | 92 | 1013.4 |
| 20260505114601 | 36 | 0 | 0.0 | 0.0 | 0.00 | 0.04 | 0.01 | 92 | 1013.5 |
| 20260505114057 | 36 | 0 | 0.0 | 0.0 | 0.00 | 0.04 | 0.01 | 93 | 1013.5 |
| 20260505113601 | 36 | 0 | 0.0 | 0.0 | 0.00 | 0.04 | 0.01 | 93 | 1013.6 |
| 20260505113107 | 36 | 0 | 0.0 | 0.0 | 0.00 | 0.04 | 0.01 | 93 | 1013.5 |
| 20260505112558 | 36 | 0 | 0.0 | 0.0 | 0.00 | 0.04 | 0.01 | 93 | 1013.7 |
| 20260505112057 | 36 | 0 | 0.0 | 0.0 | 0.00 | 0.04 | 0.01 | 93 | 1013.7 |
| 20260505111559 | 36 | 0 | 0.0 | 0.0 | 0.00 | 0.04 | 0.01 | 93 | 1013.7 |
| 20260505111057 | 36 | 0 | 0.0 | 0.0 | 0.00 | 0.04 | 0.01 | 93 | 1013.7 |
| 20260505110557 | 36 | 0 | 0.0 | 0.0 | 0.00 | 0.04 | 0.01 | 93 | 1013.5 |
| 20260505102058 | 36 | 0 | 0.0 | 0.0 | 0.01 | 0.04 | 0.01 | 93 | 1013.5 |
| 20260505101604 | 36 | 0 | 0.0 | 0.0 | 0.01 | 0.04 | 0.01 | 93 | 1013.6 |
| 20260505101059 | 36 | 0 | 0.0 | 0.0 | 0.01 | 0.04 | 0.01 | 93 | 1013.7 |
| 20260505100559 | 36 | 0 | 0.0 | 0.0 | 0.01 | 0.04 | 0.01 | 93 | 1013.7 |
| 20260505100101 | 36 | 0 | 0.0 | 0.0 | 0.01 | 0.04 | 0.01 | 93 | 1013.7 |
| 20260505095559 | 36 | 0 | 0.0 | 0.0 | 0.01 | 0.04 | 0.01 | 93 | 1013.7 |
| 20260505095121 | 36 | 0 | 0.0 | 0.0 | 0.01 | 0.04 | 0.01 | 93 | 1013.7 |
| 20260505094602 | 36 | 0 | 0.0 | 0.0 | 0.01 | 0.04 | 0.01 | 93 | 1013.9 |
| 20260505094103 | 36 | 0 | 0.0 | 0.0 | 0.01 | 0.04 | 0.01 | 92 | 1014.0 |
| 20260505093559 | 36 | 0 | 0.0 | 0.0 | 0.01 | 0.04 | 0.01 | 92 | 1014.0 |
| 20260505093059 | 36 | 0 | 0.0 | 0.0 | 0.01 | 0.04 | 0.01 | 92 | 1014.1 |
| 20260505092559 | 36 | 0 | 0.0 | 1.0 | 0.00 | 0.03 | 0.00 | 92 | 1014.1 |
| 20260505092059 | 36 | 0 | 0.0 | 1.0 | 0.00 | 0.03 | 0.00 | 92 | 1014.1 |
| 20260505091611 | 36 | 156 | 0.0 | 1.0 | 0.00 | 0.03 | 0.00 | 92 | 1014.2 |
| 20260505091058 | 36 | 77 | 0.0 | 3.0 | 0.00 | 0.03 | 0.00 | 92 | 1014.4 |
| 20260505090559 | 36 | 72 | 0.0 | 3.0 | 0.00 | 0.03 | 0.00 | 92 | 1014.3 |
| 20260505085603 | 36 | 58 | 1.0 | 5.0 | 0.00 | 0.03 | 0.00 | 92 | 1014.4 |
| 20260505085059 | 36 | 54 | 2.0 | 5.0 | 0.00 | 0.03 | 0.00 | 92 | 1014.4 |
| 20260505084607 | 36 | 71 | 0.0 | 2.0 | 0.00 | 0.03 | 0.00 | 92 | 1014.5 |
| 20260505084059 | 36 | 72 | 0.0 | 4.0 | 0.00 | 0.03 | 0.00 | 92 | 1014.5 |
| 20260505083603 | 35 | 72 | 2.0 | 6.0 | 0.00 | 0.03 | 0.00 | 92 | 1014.5 |
| 20260505083107 | 35 | 79 | 3.0 | 6.0 | 0.00 | 0.03 | 0.00 | 92 | 1014.5 |
| 20260505082559 | 35 | 98 | 4.0 | 12.0 | 0.00 | 0.03 | 0.00 | 92 | 1014.6 |
| 20260505082058 | 35 | 129 | 3.0 | 12.0 | 0.00 | 0.03 | 0.00 | 91 | 1014.7 |
| 20260505081558 | 35 | 65 | 4.0 | 11.0 | 0.00 | 0.03 | 0.00 | 91 | 1014.6 |
| 20260505081059 | 36 | 91 | 3.0 | 10.0 | 0.00 | 0.03 | 0.00 | 90 | 1014.6 |
| 20260505080558 | 36 | 92 | 5.0 | 10.0 | 0.00 | 0.03 | 0.00 | 90 | 1014.7 |
| 20260505080057 | 36 | 72 | 4.0 | 11.0 | 0.00 | 0.03 | 0.00 | 90 | 1014.6 |
| 20260505075559 | 36 | 89 | 5.0 | 11.0 | 0.00 | 0.03 | 0.00 | 89 | 1014.6 |
| 20260505075059 | 36 | 74 | 5.0 | 12.0 | 0.00 | 0.03 | 0.00 | 88 | 1014.6 |
| 20260505074559 | 36 | 65 | 8.0 | 12.0 | 0.00 | 0.03 | 0.00 | 88 | 1014.7 |
| 20260505074057 | 37 | 79 | 4.0 | 9.0 | 0.00 | 0.03 | 0.00 | 87 | 1014.8 |
| 20260505073557 | 37 | 92 | 4.0 | 7.0 | 0.00 | 0.03 | 0.00 | 87 | 1014.7 |
| 20260505073103 | 37 | 82 | 2.0 | 9.0 | 0.00 | 0.03 | 0.00 | 87 | 1014.8 |
| 20260505072602 | 37 | 100 | 3.0 | 10.0 | 0.00 | 0.03 | 0.00 | 87 | 1014.7 |
| 20260505072100 | 37 | 86 | 4.0 | 10.0 | 0.00 | 0.03 | 0.00 | 86 | 1014.7 |
| 20260505071601 | 37 | 72 | 6.0 | 10.0 | 0.00 | 0.03 | 0.00 | 85 | 1014.7 |
| 20260505071058 | 38 | 82 | 2.0 | 7.0 | 0.00 | 0.03 | 0.00 | 84 | 1014.8 |
| 20260505070601 | 38 | 68 | 3.0 | 7.0 | 0.00 | 0.03 | 0.00 | 84 | 1014.8 |
| 20260505070106 | 38 | 77 | 3.0 | 7.0 | 0.00 | 0.03 | 0.00 | 83 | 1014.7 |
| 20260505065558 | 38 | 63 | 3.0 | 6.0 | 0.00 | 0.03 | 0.03 | 83 | 1014.7 |
| 20260505065057 | 38 | 93 | 2.0 | 4.0 | 0.00 | 0.03 | 0.03 | 82 | 1014.8 |
| 20260505064559 | 38 | 82 | 2.0 | 5.0 | 0.00 | 0.03 | 0.03 | 83 | 1014.8 |
| 20260505064057 | 38 | 229 | 2.0 | 6.0 | 0.00 | 0.03 | 0.03 | 83 | 1014.8 |
| 20260505063557 | 38 | 130 | 3.0 | 6.0 | 0.00 | 0.03 | 0.03 | 84 | 1014.8 |
| 20260505063059 | 38 | 101 | 1.0 | 7.0 | 0.00 | 0.03 | 0.03 | 86 | 1014.7 |
| 20260505062559 | 38 | 91 | 3.0 | 7.0 | 0.00 | 0.03 | 0.03 | 86 | 1015.0 |
| 20260505062101 | 38 | 70 | 3.0 | 8.0 | 0.00 | 0.03 | 0.03 | 86 | 1015.0 |
| 20260505061618 | 39 | 114 | 4.0 | 9.0 | 0.00 | 0.03 | 0.03 | 86 | 1015.0 |
| 20260505061057 | 39 | 98 | 4.0 | 10.0 | 0.00 | 0.03 | 0.03 | 87 | 1015.0 |
| 20260505060559 | 39 | 119 | 3.0 | 10.0 | 0.00 | 0.03 | 0.03 | 86 | 1015.0 |
| 20260505060103 | 39 | 139 | 4.0 | 9.0 | 0.00 | 0.03 | 0.03 | 86 | 1014.8 |
| 20260505055557 | 39 | 109 | 4.0 | 6.0 | 0.00 | 0.03 | 0.03 | 86 | 1014.9 |
| 20260505055058 | 39 | 120 | 3.0 | 5.0 | 0.00 | 0.03 | 0.03 | 85 | 1014.9 |
| 20260505054559 | 39 | 136 | 2.0 | 5.0 | 0.00 | 0.03 | 0.03 | 85 | 1014.9 |
| 20260505054057 | 39 | 115 | 2.0 | 5.0 | 0.00 | 0.03 | 0.03 | 85 | 1014.9 |
| 20260505053557 | 39 | 146 | 0.0 | 2.0 | 0.00 | 0.03 | 0.03 | 85 | 1014.8 |
| 20260505053059 | 39 | 68 | 0.0 | 2.0 | 0.00 | 0.03 | 0.03 | 84 | 1015.0 |
| 20260505052557 | 39 | 184 | 0.0 | 0.0 | 0.00 | 0.03 | 0.03 | 83 | 1014.7 |
| 20260505052058 | 40 | 0 | 0.0 | 1.0 | 0.00 | 0.03 | 0.03 | 83 | 1014.7 |
| 20260505051558 | 40 | 0 | 0.0 | 1.0 | 0.00 | 0.03 | 0.03 | 82 | 1014.7 |
| 20260505051058 | 40 | 0 | 0.0 | 0.0 | 0.00 | 0.03 | 0.03 | 81 | 1014.7 |
| 20260505050558 | 40 | 0 | 0.0 | 0.0 | 0.00 | 0.03 | 0.03 | 80 | 1014.8 |
| 20260505041604 | 41 | 140 | 1.0 | 2.0 | 0.00 | 0.03 | 0.03 | 77 | 1014.4 |
| 20260505041058 | 40 | 135 | 0.0 | 3.0 | 0.00 | 0.03 | 0.03 | 77 | 1014.4 |
| 20260505040558 | 40 | 101 | 1.0 | 3.0 | 0.00 | 0.03 | 0.03 | 78 | 1014.4 |
| 20260505040104 | 41 | 0 | 1.0 | 3.0 | 0.00 | 0.03 | 0.03 | 77 | 1014.3 |
| 20260505035557 | 41 | 117 | 0.0 | 3.0 | 0.00 | 0.03 | 0.03 | 76 | 1014.3 |
| 20260505035057 | 41 | 84 | 0.0 | 4.0 | 0.00 | 0.03 | 0.03 | 74 | 1014.2 |
| 20260505034609 | 41 | 68 | 0.0 | 5.0 | 0.00 | 0.03 | 0.03 | 75 | 1014.1 |
| 20260505034059 | 41 | 222 | 1.0 | 5.0 | 0.00 | 0.03 | 0.03 | 75 | 1014.2 |
| 20260505033557 | 41 | 135 | 2.0 | 5.0 | 0.00 | 0.03 | 0.03 | 78 | 1014.2 |
| 20260505033105 | 41 | 108 | 1.0 | 4.0 | 0.00 | 0.03 | 0.03 | 79 | 1014.1 |
| 20260505032558 | 41 | 63 | 1.0 | 5.0 | 0.00 | 0.03 | 0.03 | 80 | 1013.9 |
| 20260505032058 | 41 | 79 | 1.0 | 5.0 | 0.00 | 0.03 | 0.03 | 79 | 1013.7 |
| 20260505031558 | 41 | 113 | 3.0 | 6.0 | 0.00 | 0.03 | 0.03 | 79 | 1013.7 |
| 20260505031057 | 41 | 89 | 2.0 | 6.0 | 0.00 | 0.03 | 0.03 | 80 | 1013.7 |
| 20260505030558 | 41 | 68 | 1.0 | 5.0 | 0.00 | 0.03 | 0.03 | 79 | 1013.7 |
| 20260505030112 | 41 | 70 | 3.0 | 5.0 | 0.00 | 0.03 | 0.03 | 81 | 1013.6 |
| 20260505025557 | 41 | 71 | 2.0 | 3.0 | 0.01 | 0.03 | 0.03 | 80 | 1013.5 |
| 20260505025057 | 41 | 61 | 2.0 | 3.0 | 0.01 | 0.03 | 0.03 | 79 | 1013.5 |
| 20260505024602 | 41 | 70 | 0.0 | 2.0 | 0.02 | 0.03 | 0.03 | 77 | 1013.5 |
| 20260505024057 | 41 | 75 | 1.0 | 2.0 | 0.02 | 0.03 | 0.03 | 79 | 1013.6 |
| 20260505023557 | 41 | 0 | 0.0 | 1.0 | 0.03 | 0.03 | 0.03 | 81 | 1013.6 |
| 20260505023058 | 41 | 148 | 0.0 | 1.0 | 0.03 | 0.03 | 0.03 | 80 | 1013.6 |
| 20260505022558 | 41 | 159 | 0.0 | 3.0 | 0.03 | 0.03 | 0.03 | 80 | 1013.8 |
| 20260505022102 | 41 | 165 | 0.0 | 3.0 | 0.03 | 0.03 | 0.03 | 80 | 1013.8 |
| 20260505021603 | 41 | 182 | 1.0 | 3.0 | 0.03 | 0.03 | 0.03 | 81 | 1013.9 |
| 20260505021059 | 41 | 172 | 1.0 | 3.0 | 0.03 | 0.03 | 0.03 | 80 | 1013.9 |
| 20260505020600 | 41 | 167 | 2.0 | 3.0 | 0.03 | 0.03 | 0.03 | 80 | 1013.9 |
| 20260505020058 | 42 | 143 | 0.0 | 3.0 | 0.03 | 0.03 | 0.03 | 80 | 1014.2 |
| 20260505015558 | 42 | 0 | 0.0 | 3.0 | 0.02 | 0.02 | 0.02 | 78 | 1014.2 |
| 20260505015058 | 43 | 0 | 0.0 | 3.0 | 0.02 | 0.02 | 0.02 | 76 | 1014.2 |
| 20260505014557 | 43 | 210 | 0.0 | 4.0 | 0.01 | 0.01 | 0.01 | 75 | 1014.3 |
| 20260505014057 | 44 | 205 | 1.0 | 8.0 | 0.01 | 0.01 | 0.01 | 72 | 1014.2 |
| 20260505013639 | 45 | 241 | 2.0 | 9.0 | 0.00 | 0.00 | 0.00 | 67 | 1014.0 |
| 20260505013103 | 46 | 101 | 4.0 | 9.0 | 0.00 | 0.00 | 0.00 | 64 | 1013.7 |
| 20260505012557 | 46 | 300 | 3.0 | 9.0 | 0.00 | 0.00 | 0.00 | 64 | 1013.8 |
| 20260505012057 | 46 | 316 | 4.0 | 9.0 | 0.00 | 0.00 | 0.00 | 64 | 1013.7 |
| 20260505011618 | 47 | 290 | 4.0 | 11.0 | 0.00 | 0.00 | 0.00 | 61 | 1013.7 |
| 20260505011059 | 47 | 347 | 4.0 | 12.0 | 0.00 | 0.00 | 0.00 | 60 | 1013.5 |
| 20260505010557 | 47 | 83 | 6.0 | 12.0 | 0.00 | 0.00 | 0.00 | 60 | 1013.5 |
| 20260505010107 | 48 | 244 | 5.0 | 12.0 | 0.00 | 0.00 | 0.00 | 58 | 1013.3 |
| 20260505005558 | 48 | 29 | 4.0 | 12.0 | 0.00 | 0.00 | 0.00 | 59 | 1013.2 |
| 20260505005101 | 49 | 264 | 6.0 | 13.0 | 0.00 | 0.00 | 0.00 | 56 | 1013.0 |
| 20260505004601 | 50 | 301 | 7.0 | 13.0 | 0.00 | 0.00 | 0.00 | 55 | 1013.0 |
| 20260505004058 | 51 | 1 | 5.0 | 10.0 | 0.00 | 0.00 | 0.00 | 48 | 1012.7 |
| 20260505003557 | 52 | 303 | 4.0 | 9.0 | 0.00 | 0.00 | 0.00 | 49 | 1012.6 |
| 20260505003058 | 53 | 338 | 3.0 | 9.0 | 0.00 | 0.00 | 0.00 | 44 | 1012.6 |
| 20260505002557 | 53 | 341 | 2.0 | 10.0 | 0.00 | 0.00 | 0.00 | 43 | 1012.5 |
| 20260505002101 | 53 | 269 | 4.0 | 10.0 | 0.00 | 0.00 | 0.00 | 42 | 1012.5 |
| 20260505001558 | 54 | 291 | 4.0 | 10.0 | 0.00 | 0.00 | 0.00 | 42 | 1012.4 |
| 20260505001057 | 54 | 295 | 1.0 | 5.0 | 0.00 | 0.00 | 0.00 | 42 | 1012.6 |
| 20260505000557 | 54 | 0 | 0.0 | 7.0 | 0.00 | 0.00 | 0.00 | 41 | 1012.4 |
| 20260505000108 | 54 | 309 | 0.0 | 7.0 | 0.00 | 0.00 | 0.00 | 40 | 1012.5 |
| 20260504235558 | 54 | 139 | 1.0 | 9.0 | 0.00 | 0.00 | 0.00 | 41 | 1012.5 |
| 20260504235058 | 53 | 330 | 2.0 | 9.0 | 0.00 | 0.00 | 0.00 | 44 | 1012.6 |
| 20260504234607 | 52 | 264 | 2.0 | 13.0 | 0.00 | 0.00 | 0.00 | 46 | 1012.6 |
| 20260504234102 | 52 | 182 | 2.0 | 13.0 | 0.00 | 0.00 | 0.00 | 45 | 1012.7 |
| 20260504233558 | 52 | 242 | 2.0 | 13.0 | 0.00 | 0.00 | 0.00 | 44 | 1012.7 |
| 20260504233059 | 52 | 137 | 3.0 | 11.0 | 0.00 | 0.00 | 0.00 | 44 | 1012.6 |
| 20260504232558 | 52 | 236 | 3.0 | 9.0 | 0.00 | 0.00 | 0.00 | 45 | 1012.8 |
| 20260504232101 | 52 | 69 | 3.0 | 13.0 | 0.00 | 0.00 | 0.00 | 46 | 1012.7 |
| 20260504231557 | 52 | 262 | 3.0 | 13.0 | 0.00 | 0.00 | 0.00 | 48 | 1012.6 |
| 20260504231057 | 52 | 282 | 2.0 | 8.0 | 0.00 | 0.00 | 0.00 | 49 | 1012.9 |
| 20260504230558 | 53 | 259 | 1.0 | 7.0 | 0.00 | 0.00 | 0.00 | 48 | 1013.0 |
| 20260504230059 | 52 | 255 | 2.0 | 7.0 | 0.00 | 0.00 | 0.00 | 49 | 1013.3 |
| 20260504225558 | 52 | 297 | 2.0 | 8.0 | 0.00 | 0.00 | 0.00 | 48 | 1013.4 |
| 20260504225057 | 52 | 110 | 2.0 | 9.0 | 0.00 | 0.00 | 0.00 | 50 | 1013.5 |
| 20260504224602 | 52 | 143 | 3.0 | 13.0 | 0.00 | 0.00 | 0.00 | 51 | 1013.4 |
| 20260504224057 | 52 | 110 | 4.0 | 13.0 | 0.00 | 0.00 | 0.00 | 50 | 1013.5 |
| 20260504223557 | 52 | 205 | 2.0 | 11.0 | 0.00 | 0.00 | 0.00 | 50 | 1013.4 |
| 20260504223058 | 52 | 352 | 3.0 | 10.0 | 0.00 | 0.00 | 0.00 | 50 | 1013.5 |
| 20260504222558 | 53 | 181 | 3.0 | 11.0 | 0.00 | 0.00 | 0.00 | 48 | 1013.6 |
| 20260504222101 | 54 | 254 | 3.0 | 11.0 | 0.00 | 0.00 | 0.00 | 47 | 1013.5 |
| 20260504221602 | 55 | 46 | 3.0 | 10.0 | 0.00 | 0.00 | 0.00 | 45 | 1013.7 |
| 20260504221057 | 54 | 257 | 2.0 | 8.0 | 0.00 | 0.00 | 0.00 | 42 | 1013.6 |
| 20260504220558 | 54 | 294 | 1.0 | 8.0 | 0.00 | 0.00 | 0.00 | 42 | 1013.7 |
| 20260504220107 | 53 | 277 | 3.0 | 7.0 | 0.00 | 0.00 | 0.00 | 44 | 1013.7 |
| 20260504215559 | 53 | 174 | 2.0 | 7.0 | 0.00 | 0.00 | 0.00 | 44 | 1013.7 |
| 20260504215057 | 52 | 308 | 2.0 | 7.0 | 0.00 | 0.00 | 0.00 | 45 | 1013.9 |
| 20260504214559 | 52 | 72 | 1.0 | 4.0 | 0.00 | 0.00 | 0.00 | 46 | 1013.7 |
| 20260504214057 | 52 | 0 | 1.0 | 4.0 | 0.00 | 0.00 | 0.00 | 47 | 1013.8 |
| 20260504213557 | 52 | 309 | 1.0 | 4.0 | 0.00 | 0.00 | 0.00 | 45 | 1013.9 |
| 20260504213110 | 51 | 0 | 1.0 | 5.0 | 0.00 | 0.00 | 0.00 | 48 | 1013.8 |
| 20260504212558 | 51 | 338 | 1.0 | 5.0 | 0.00 | 0.00 | 0.00 | 50 | 1013.9 |
| 20260504212057 | 50 | 42 | 1.0 | 6.0 | 0.00 | 0.00 | 0.00 | 50 | 1013.8 |
| 20260504211558 | 50 | 323 | 3.0 | 7.0 | 0.00 | 0.00 | 0.00 | 53 | 1013.9 |
| 20260504211057 | 50 | 91 | 2.0 | 9.0 | 0.00 | 0.00 | 0.00 | 56 | 1013.9 |
| 20260504210600 | 50 | 85 | 2.0 | 9.0 | 0.00 | 0.00 | 0.00 | 54 | 1013.9 |
| 20260504210105 | 50 | 19 | 4.0 | 9.0 | 0.00 | 0.00 | 0.00 | 55 | 1013.7 |
| 20260504205559 | 50 | 17 | 3.0 | 7.0 | 0.00 | 0.00 | 0.00 | 54 | 1013.7 |
| 20260504205059 | 51 | 333 | 1.0 | 7.0 | 0.00 | 0.00 | 0.00 | 47 | 1013.5 |
| 20260504204603 | 50 | 50 | 1.0 | 7.0 | 0.00 | 0.00 | 0.00 | 52 | 1013.5 |
| 20260504204059 | 50 | 271 | 1.0 | 10.0 | 0.00 | 0.00 | 0.00 | 53 | 1013.7 |
| 20260504203557 | 50 | 173 | 3.0 | 11.0 | 0.00 | 0.00 | 0.00 | 52 | 1013.7 |
| 20260504203059 | 50 | 67 | 2.0 | 11.0 | 0.00 | 0.00 | 0.00 | 50 | 1013.8 |
| 20260504202557 | 50 | 235 | 3.0 | 10.0 | 0.00 | 0.00 | 0.00 | 51 | 1013.5 |
| 20260504202057 | 49 | 219 | 1.0 | 11.0 | 0.00 | 0.00 | 0.00 | 53 | 1013.5 |
| 20260504201558 | 49 | 198 | 2.0 | 11.0 | 0.00 | 0.00 | 0.00 | 52 | 1013.7 |
| 20260504201058 | 48 | 255 | 2.0 | 6.0 | 0.00 | 0.00 | 0.00 | 53 | 1013.9 |
| 20260504200558 | 48 | 250 | 2.0 | 6.0 | 0.00 | 0.00 | 0.00 | 55 | 1014.1 |
| 20260504200057 | 48 | 160 | 1.0 | 5.0 | 0.00 | 0.00 | 0.00 | 55 | 1014.3 |
| 20260504195557 | 47 | 252 | 1.0 | 7.0 | 0.00 | 0.00 | 0.00 | 55 | 1014.2 |
| 20260504195056 | 47 | 229 | 2.0 | 8.0 | 0.00 | 0.00 | 0.00 | 55 | 1014.6 |
| 20260504194559 | 48 | 238 | 1.0 | 8.0 | 0.00 | 0.00 | 0.00 | 55 | 1014.5 |
| 20260504194058 | 49 | 112 | 1.0 | 5.0 | 0.00 | 0.00 | 0.00 | 50 | 1014.4 |
| 20260504193558 | 49 | 200 | 0.0 | 5.0 | 0.00 | 0.00 | 0.00 | 48 | 1014.3 |
| 20260504193113 | 49 | 253 | 0.0 | 5.0 | 0.00 | 0.00 | 0.00 | 48 | 1014.4 |
| 20260504192557 | 49 | 59 | 2.0 | 5.0 | 0.00 | 0.00 | 0.00 | 49 | 1014.5 |
| 20260504192059 | 50 | 293 | 1.0 | 6.0 | 0.00 | 0.00 | 0.00 | 47 | 1014.4 |
| 20260504191555 | 50 | 251 | 1.0 | 6.0 | 0.00 | 0.00 | 0.00 | 48 | 1014.2 |
| 20260504191057 | 50 | 336 | 2.0 | 6.0 | 0.00 | 0.00 | 0.00 | 46 | 1014.2 |
| 20260504190601 | 51 | 315 | 1.0 | 6.0 | 0.00 | 0.00 | 0.00 | 44 | 1014.1 |
| 20260504190107 | 51 | 278 | 2.0 | 6.0 | 0.00 | 0.00 | 0.00 | 46 | 1014.1 |
| 20260504185557 | 52 | 4 | 1.0 | 6.0 | 0.00 | 0.00 | 0.00 | 44 | 1014.1 |
| 20260504185057 | 52 | 330 | 1.0 | 10.0 | 0.00 | 0.00 | 0.00 | 46 | 1014.1 |
| 20260504184555 | 51 | 280 | 1.0 | 11.0 | 0.00 | 0.00 | 0.00 | 46 | 1014.0 |
| 20260504184101 | 51 | 288 | 3.0 | 11.0 | 0.00 | 0.00 | 0.00 | 48 | 1014.0 |
| 20260504183558 | 51 | 307 | 2.0 | 7.0 | 0.00 | 0.00 | 0.00 | 48 | 1013.9 |
| 20260504183102 | 51 | 6 | 3.0 | 7.0 | 0.00 | 0.00 | 0.00 | 50 | 1014.0 |
| 20260504182557 | 51 | 266 | 0.0 | 5.0 | 0.00 | 0.00 | 0.00 | 53 | 1014.0 |
| 20260504182057 | 50 | 0 | 1.0 | 8.0 | 0.00 | 0.00 | 0.00 | 51 | 1014.0 |
| 20260504181558 | 51 | 6 | 2.0 | 8.0 | 0.00 | 0.00 | 0.00 | 51 | 1014.0 |
| 20260504181057 | 51 | 23 | 4.0 | 8.0 | 0.00 | 0.00 | 0.00 | 52 | 1013.9 |
| 20260504180602 | 52 | 340 | 2.0 | 8.0 | 0.00 | 0.00 | 0.00 | 52 | 1013.7 |
| 20260504180140 | 52 | 334 | 3.0 | 9.0 | 0.00 | 0.00 | 0.00 | 51 | 1013.7 |
| 20260504175559 | 52 | 295 | 4.0 | 9.0 | 0.00 | 0.00 | 0.00 | 51 | 1013.6 |
| 20260504175057 | 53 | 148 | 3.0 | 8.0 | 0.00 | 0.00 | 0.00 | 50 | 1013.4 |
| 20260504174555 | 54 | 243 | 3.0 | 8.0 | 0.00 | 0.00 | 0.00 | 49 | 1013.4 |
| 20260504174059 | 55 | 335 | 3.0 | 9.0 | 0.00 | 0.00 | 0.00 | 47 | 1013.5 |
| 20260504173555 | 57 | 82 | 4.0 | 9.0 | 0.00 | 0.00 | 0.00 | 45 | 1013.5 |
| 20260504173055 | 58 | 355 | 3.0 | 9.0 | 0.00 | 0.00 | 0.00 | 45 | 1013.2 |
| 20260504172558 | 58 | 286 | 3.0 | 6.0 | 0.00 | 0.00 | 0.00 | 43 | 1013.2 |
| 20260504172057 | 58 | 11 | 2.0 | 7.0 | 0.00 | 0.00 | 0.00 | 43 | 1013.1 |
| 20260504171556 | 57 | 314 | 3.0 | 7.0 | 0.00 | 0.00 | 0.00 | 43 | 1013.0 |
| 20260504171058 | 57 | 298 | 2.0 | 7.0 | 0.00 | 0.00 | 0.00 | 44 | 1013.0 |
| 20260504170558 | 58 | 286 | 2.0 | 7.0 | 0.00 | 0.00 | 0.00 | 43 | 1013.2 |